Regional Weather Roundup
Issued by NWS Newport/Morehead, NC

Current Version | Previous Version | Text Only | Print | Product List | Glossary Off
Versions: 1 2 3 4 5 6 7 8 9 10 11 12 13 14 15 16 17 18 19 20 21 22 23 24 25 26 27 28 29 30 31 32 33 34 35 36 37 38 39 40 41 42 43 44 45 46 47 48 49 50
710 ASUS42 KMHX 262013 RWRMHX WEATHER ROUNDUP FOR EASTERN NORTH CAROLINA NATIONAL WEATHER SERVICE NEWPORT/MOREHEAD CITY NC 400 PM EDT THU APR 26 2018 NOTE: "FAIR" INDICATES FEW OR NO CLOUDS BELOW 12,000 FEET WITH NO SIGNIFICANT WEATHER AND/OR OBSTRUCTIONS TO VISIBILITY NCZ015>017-031-032-045>047-102-103-262100- NORTH COAST CITY SKY/WX TMP DP RH WIND PRES REMARKS EDENTON CLOUDY 68 56 64 E10 29.88F ELIZABETH CITY CLOUDY 67 50 54 SE10 29.88F KITTY HAWK MOCLDY 61 50 67 CALM 29.89S MANTEO PTSUNNY 64 52 64 SE8 29.89F $$ NCZ045>047-081-094-103-104-262100- CENTRAL COAST CITY SKY/WX TMP DP RH WIND PRES REMARKS FRISCO FAIR 71 59 65 SE9 29.89F $$ NCZ095-097-098-100-101-262100- SOUTHERN COAST CITY SKY/WX TMP DP RH WIND PRES REMARKS BEAUFORT FAIR 73 62 68 S13G18 29.87F CEDAR ISLAND NOT AVBL JACKSONVILLE FAIR 75 61 61 SE13 29.85F PINEY ISLAND NOT AVBL WILMINGTON FAIR 76 59 55 S9 29.85F $$ NCZ011>013-027>030-043-044-078>080-089-090>093-098-262100- COASTAL PLAIN CITY SKY/WX TMP DP RH WIND PRES REMARKS AHOSKIE CLOUDY 70 56 60 CALM 29.86F CLINTON FAIR 76 58 52 CALM 29.83F ELIZABETHTOWN NOT AVBL GOLDSBORO PTSUNNY 76 56 49 S6 29.82F GREENVILLE FAIR 77 55 47 S5 29.87F HAVELOCK PTSUNNY 75 62 64 SE14 29.87F KENANSVILLE CLOUDY 75 57 53 S3 29.83F KINSTON PTSUNNY 79 54 41 S5 29.84F NEW BERN PTSUNNY 75 58 55 S9G18 29.86F RICHLANDS PTSUNNY 77 58 51 S14G20 29.84F ROCKY MOUNT FAIR 74 56 53 SW3 29.85F WASHINGTON CLOUDY 76 58 54 CALM 29.84F WHITEVILLE FAIR 77 55 46 S12G17 29.82F $$ AMZ130-135-150-152-154-156-158-170-250-252-270-ANZ085-086-088-633-658-670-262100- MARINE OBSERVATIONS STATION/POSITION TIME TEMP WIND PRES WAVE SWELL AIR SEA DIR/SP/G HT/PER HT/PER (UTC) (F) (DEG/KT/KT) (MB) (FT/S) (FT/S) CHESAPEAKE LIGHT NOT AVBL 64 E VA BEACH 1950 56 55 80/ 2/ 4 1013.0 6/10 7/10 DUCK 1948 60 53 80/ 6/ 7 1012.1 2 E DUCK 2000 56 N/A 4/11 3/11 OREGON INLET 1936 60 60 90/ 7/ 12 1012.0 13E OREGON INLT 1948 56 N/A 6/ 9 5/ 9 HATTERAS CG 1948 67 68 100/ 8/ 10 1011.9 DIAMOND BUOY 2000 71 71 180/ 8/ 12 1012.2 CAPE LOOKOUT 2000 110/ 6/ 6 1011.8 BEAUFORT LAB 1948 71 66 150/ 9/ 11 1011.6 30 SE NEW RVR IN 1908 71 68 150/ 4/ 6 1010.1 30 SE NEW RVR IN 2000 70 N/A 5/ 9 2/11 27 SE WRIGHTSVLE 1908 70 67 190/ 6/ 8 1011.7 5 SE WRIGHTSVLE 1908 67 65 160/ 6/ 8 1011.2 225 S CAPE HAT 2000 73 74 210/ 12/ 14 1013.1 41 SE CHARLESTON 1950 70 210/ 8/ 10 1011.2 3/ 9 3/ 9 $$

USA.gov is the U.S. government's official web portal to all federal, state and local government web resources and services.